Regional Weather Roundup
Issued by NWS

Home | Current Version | Previous Version | Text Only | Print | Product List | Glossary On
Versions: 1 2 3 4 5 6 7 8 9 10 11 12 13 14 15 16 17 18 19 20 21 22 23 24 25 26 27 28 29 30 31 32 33 34 35 36 37 38 39 40 41 42 43 44 45 46 47 48 49 50
000
ASUS44 KBMX 190910
RWRAL

ALABAMA REGIONAL WEATHER ROUNDUP
NATIONAL WEATHER SERVICE BIRMINGHAM AL
400 AM CDT SUN APR 19 2015

NOTE: "FAIR" INDICATES FEW OR NO CLOUDS BELOW 12,000 FEET
WITH NO SIGNIFICANT WEATHER AND/OR OBSTRUCTIONS TO VISIBILITY.

THE REMARK "TC" DENOTES TEMPERATURE IN DEGREES CELSIUS.

ALZ001>011-014-016>018-020-191000-
NORTH ALABAMA

CITY           SKY/WX    TMP DP  RH WIND       PRES   REMARKS
MUSCLE SHOALS  RAIN      66  63  90 SE6       29.73F FOG
HUNTSVILLE     RAIN      67  66  97 E8        29.75F FOG
DECATUR        RAIN      65  65 100 SE5       29.76S
HALEYVILLE     RAIN      64  64 100 CALM      29.75F FOG
GADSDEN        CLOUDY    66  63  88 SE5       29.77F
$$

ALZ012-013-022-023-030>036-040>044-191000-
WEST CENTRAL ALABAMA

CITY           SKY/WX    TMP DP  RH WIND       PRES   REMARKS
TUSCALOOSA     CLOUDY    69  67  93 S13       29.75S
$$

ALZ015-024>027-033>036-040>044-191000-
CENTRAL ALABAMA

CITY           SKY/WX    TMP DP  RH WIND       PRES   REMARKS
BIRMINGHAM     LGT RAIN  68  67  96 S7        29.79S
MONTGOMERY     CLOUDY    71  68  90 CALM      29.81S
SHELBY CO ARPT HVY RAIN  70  68  93 S5        29.78F FOG
MAXWELL AFB    CLOUDY    70  68  94 S2        29.81R
GREENVILLE     CLOUDY    69  67  93 S5        29.82R
$$

ALZ019-021-028-029-037-038-045>048-191000-
EAST CENTRAL ALABAMA

CITY           SKY/WX    TMP DP  RH WIND       PRES   REMARKS
ANNISTON       CLOUDY    68  65  90 NE3       29.80F
ALEXANDER CITY CLOUDY    71  66  85 S6        29.83R
AUBURN         CLOUDY    66  63  88 S9        29.87R
$$

ALZ051>064-191000-
SOUTHWEST ALABAMA

CITY           SKY/WX    TMP DP  RH WIND       PRES   REMARKS
MOBILE         MOCLDY    69  67  93 S8        29.80F
BROOKLEY FIELD CLOUDY    72  68  87 S6        29.81F
EVERGREEN      LGT RAIN  69  68  96 S7        29.82R
$$

ALZ049-050-065>069-191000-
SOUTHEAST ALABAMA

CITY           SKY/WX    TMP DP  RH WIND       PRES   REMARKS
DOTHAN         CLOUDY    71  69  93 SE8       29.86R
OZARK          CLOUDY    70  65  85 CALM      29.81S
TROY           CLOUDY    70  69  97 S5        29.83S
EUFAULA        MOCLDY    71  69  93 E6        29.81F
$$


USA.gov is the U.S. government's official web portal to all federal, state and local government web resources and services.